User: anonymous   Login
Location: Mentone
(34.5413°N, 85.5351°W)
Time: 10:40:34
(UTC-05:00)
Language:

ADEOS Rocket - Orbit

View from above orbital plane
View from above orbital plane
View from above satellite
View from above satellite

Ground track
Ground track

The orbit data is extracted from the following two-line orbital elements,

1 24279U 96046C   15108.73704101  .00000055  00000-0  11107-3 0  9990
2 24279 098.7039 142.7682 0300944 145.5637 350.1389 13.47021898917822
Epoch (UTC): 18 April 2015 17:41:20
Eccentricity: 0.0300944
inclination: 98.7039°
perigee height: 858 km
apogee height: 1308 km
right ascension of ascending node: 142.7682°
argument of perigee: 145.5637°
revolutions per day: 13.47021898
mean anomaly at epoch: 350.1389°
orbit number at epoch: 91782

The dashed part of the orbit path shows where the satellite is in the earth's shadow,  

DLR